Probability
0 0 0 0 0 0 0 0 0 0 0 0 0 0 0 0 0 0 0 0 0 10 97 100 97 97 87 84 94 97 100 100 100 100 100 100 100 100 100 100 100 97 94 55 16 13 42 77 90
0 0 0 0 0 0 0 0 0 0 0 0 0 0 0 0 0 0 0 0 0 55 94 94 97 97 97 84 94 100 100 100 100 100 100 100 100 100 100 100 100 97 100 97 90 55 6 10 42
0 0 0 0 0 0 0 0 0 0 0 3 0 0 0 0 0 0 0 0 0 65 97 84 100 97 97 90 97 100 100 100 100 100 100 100 100 100 100 100 100 100 97 100 100 94 87 77 61
0 0 0 0 0 0 0 0 0 0 0 6 0 0 0 0 0 0 0 0 23 77 97 97 100 97 100 97 97 100 100 100 100 100 100 100 100 100 100 100 100 100 94 97 97 97 97 100 100
0 0 0 0 0 0 0 0 0 0 16 16 0 0 0 0 0 0 0 3 32 74 97 97 100 100 100 100 100 100 100 100 100 100 100 100 100 100 100 100 100 100 100 100 100 100 100 100 100
0 0 0 0 0 0 0 0 0 10 52 16 3 0 0 0 0 0 0 3 42 97 100 97 100 100 100 100 100 100 100 100 100 100 100 100 100 100 100 100 100 100 100 100 100 100 100 100 100
0 0 0 0 0 0 0 0 0 23 55 32 3 0 0 0 0 0 0 6 68 100 100 100 100 97 100 100 100 100 100 100 100 100 100 100 100 100 100 100 100 100 100 100 100 100 100 100 100
0 0 0 0 0 0 0 0 0 10 48 58 0 0 0 0 0 0 0 13 84 100 100 100 100 97 100 100 100 100 100 100 100 100 100 100 100 100 100 100 100 100 100 100 100 100 100 100 100
0 0 0 0 0 0 0 0 10 19 81 90 19 0 0 0 0 0 0 13 61 100 100 100 100 100 100 100 100 100 100 100 100 100 100 100 100 100 100 100 100 100 100 100 100 100 100 100 100
0 0 0 0 0 0 0 0 3 68 84 81 10 0 0 0 0 0 0 3 29 97 100 100 100 100 100 100 100 100 100 100 100 100 100 100 100 100 100 100 100 100 100 100 100 100 100 100 100
0 0 0 0 0 0 0 0 3 45 71 77 26 0 0 0 0 0 13 13 3 29 97 97 100 97 100 100 100 100 100 100 100 100 100 100 100 90 100 100 100 100 100 100 100 100 100 100 100
0 0 0 0 0 0 0 0 0 6 6 29 13 19 6 0 3 26 48 65 42 39 81 87 94 84 87 97 68 90 100 100 100 100 100 100 90 52 42 61 68 61 81 97 100 100 100 100 100
0 0 0 0 0 0 0 0 0 0 13 3 29 55 39 35 35 52 68 90 84 58 39 35 68 77 77 68 55 45 84 100 100 100 100 97 97 84 52 39 55 68 65 71 87 90 100 100 100
0 0 0 0 0 0 0 0 0 6 6 6 29 48 61 71 71 87 94 97 97 90 74 29 26 45 45 58 55 39 42 94 90 84 90 94 100 100 87 48 35 71 77 81 77 74 97 97 97
0 0 0 0 0 0 0 0 3 16 39 32 45 52 81 84 100 97 97 100 100 100 90 71 42 29 16 13 6 6 23 39 42 61 68 77 90 87 90 68 48 71 74 74 84 94 87 81 84
0 0 0 0 0 0 0 0 19 55 77 77 77 81 90 97 94 97 100 100 100 100 100 87 100 81 32 13 10 10 26 42 58 65 55 65 61 61 68 61 74 77 77 74 65 68 65 77 74
0 0 0 0 0 0 0 0 52 90 97 97 97 97 100 87 84 84 94 100 100 100 100 100 100 97 68 16 13 16 39 39 35 42 42 68 84 94 87 87 94 90 90 81 65 55 45 45 55
0 0 0 0 0 0 0 10 61 87 100 100 100 100 94 84 58 77 90 97 100 100 100 100 100 90 84 45 13 3 3 0 0 0 3 6 10 52 55 74 90 97 94 94 84 74 45 13 23
0 0 0 0 0 0 0 23 26 32 97 100 100 97 84 55 48 68 84 87 90 90 84 84 87 77 52 29 10 0 0 0 0 0 0 0 0 6 10 10 26 58 71 87 90 77 61 35 6
0 0 0 0 0 0 0 0 6 16 58 97 100 97 74 55 58 68 74 74 71 71 74 68 61 42 19 3 0 0 0 0 0 0 0 0 0 0 3 3 3 10 23 48 68 65 45 23 0
0 0 0 0 0 0 0 0 0 23 90 94 100 97 87 77 77 81 77 68 65 65 58 52 48 29 10 0 0 0 0 0 0 0 0 0 0 0 0 0 0 0 0 10 16 26 32 16 6
0 0 0 0 0 0 0 0 0 3 77 94 100 100 94 94 87 71 68 58 45 39 32 32 26 23 3 0 0 6 3 0 0 0 0 0 0 0 0 0 0 0 0 0 3 0 19 13 3
0 0 0 0 0 0 0 0 0 0 65 84 77 84 94 94 90 77 55 39 19 16 13 10 6 6 0 0 0 3 0 0 0 0 0 0 0 0 0 0 0 0 0 0 0 0 0 0 3
0 0 0 0 0 0 0 0 0 0 10 42 58 58 74 77 68 52 35 26 6 3 3 0 0 0 0 0 0 0 0 0 0 0 0 0 0 0 0 0 0 0 0 0 0 0 0 0 3
0 0 0 0 0 0 0 0 0 0 0 6 45 61 65 55 52 35 26 6 3 0 0 0 0 0 0 0 0 0 0 0 0 0 0 0 0 0 0 0 0 0 0 0 0 0 0 0 0
0 0 0 0 0 0 0 0 0 0 0 0 13 35 35 16 13 6 0 0 0 0 0 0 0 0 0 0 0 0 0 0 0 0 0 0 0 0 0 0 0 0 0 0 0 0 0 0 0
0 0 0 0 0 0 0 0 0 0 0 0 0 3 3 0 0 0 0 0 0 0 0 0 0 0 0 0 0 0 0 0 0 0 0 0 0 0 0 0 0 0 0 0 0 0 0 0 0
0 0 0 0 0 0 0 0 0 0 0 0 0 0 0 0 0 0 0 0 0 0 0 0 0 0 0 0 0 0 0 0 0 0 0 0 0 0 0 0 0 0 0 0 0 0 0 0 0
0 0 0 0 0 0 0 0 0 0 0 0 0 0 0 0 0 0 0 0 0 0 0 0 0 0 0 0 0 0 0 0 0 0 0 0 0 0 0 0 0 0 0 0 0 0 0 0 0
0 0 0 0 0 0 0 0 0 0 0 0 0 0 0 0 0 0 0 0 0 0 0 0 0 0 0 0 0 0 0 0 0 0 0 0 0 0 0 0 0 0 0 0 0 0 0 0 0
Height
5918 5918 5918 5918 5918 5917 5916 5917 5916 5916 5916 5917 5918 5919 5919 5920 5920 5922 5920 5917 5917 5916 5916 5916 5916 5915 5914 5913 5913 5912 5911 5911 5910 5910 5910 5909 5909 5909 5908 5907 5907 5906 5905 5904 5904 5904 5903 5902 5901
5919 5920 5921 5920 5919 5919 5919 5918 5918 5918 5918 5918 5918 5920 5920 5920 5920 5920 5919 5918 5917 5917 5916 5915 5915 5914 5914 5913 5912 5912 5911 5911 5910 5910 5910 5909 5909 5909 5908 5907 5907 5906 5905 5904 5904 5904 5903 5902 5902
5920 5920 5922 5921 5920 5920 5921 5920 5920 5919 5919 5919 5920 5921 5921 5921 5920 5920 5920 5919 5918 5917 5916 5916 5915 5914 5913 5912 5911 5911 5911 5911 5910 5910 5909 5909 5909 5908 5908 5907 5906 5906 5905 5904 5903 5903 5902 5902 5901
5920 5921 5922 5922 5921 5921 5922 5921 5921 5921 5921 5921 5922 5921 5921 5921 5920 5920 5919 5918 5917 5917 5916 5915 5914 5913 5912 5912 5911 5911 5910 5910 5909 5909 5909 5908 5908 5907 5907 5906 5906 5905 5905 5904 5903 5902 5902 5901 5900
5919 5921 5921 5921 5921 5922 5922 5922 5922 5922 5921 5922 5922 5922 5921 5920 5920 5919 5918 5917 5917 5916 5916 5915 5914 5912 5912 5911 5910 5910 5909 5909 5909 5908 5908 5907 5907 5906 5906 5905 5905 5904 5903 5903 5902 5901 5900 5899 5898
5918 5919 5920 5920 5921 5922 5922 5922 5922 5922 5922 5922 5922 5922 5921 5920 5920 5919 5918 5917 5917 5916 5916 5915 5913 5912 5911 5911 5910 5909 5909 5908 5908 5908 5907 5907 5906 5906 5905 5905 5904 5903 5902 5901 5900 5899 5898 5897 5896
5917 5917 5918 5918 5919 5920 5921 5922 5922 5921 5921 5922 5922 5921 5921 5920 5919 5918 5917 5917 5916 5916 5915 5914 5913 5912 5911 5910 5910 5909 5909 5908 5908 5907 5907 5906 5905 5905 5904 5903 5902 5902 5901 5900 5899 5897 5896 5895 5895
5914 5916 5916 5917 5918 5919 5920 5921 5921 5921 5921 5922 5922 5921 5920 5920 5919 5918 5917 5916 5916 5915 5914 5913 5912 5911 5911 5910 5909 5909 5908 5907 5907 5906 5905 5905 5904 5903 5902 5901 5900 5899 5898 5898 5897 5896 5894 5893 5892
5912 5914 5914 5915 5916 5918 5918 5919 5920 5920 5920 5921 5921 5921 5920 5918 5917 5917 5916 5915 5914 5913 5912 5911 5911 5910 5909 5908 5907 5907 5906 5905 5904 5903 5903 5902 5901 5900 5899 5898 5897 5896 5895 5894 5894 5893 5892 5891 5890
5909 5910 5912 5913 5914 5915 5915 5916 5917 5918 5919 5920 5921 5920 5919 5917 5916 5914 5913 5912 5911 5910 5909 5908 5907 5906 5905 5904 5903 5903 5902 5902 5901 5900 5899 5898 5897 5897 5896 5894 5893 5892 5891 5890 5889 5888 5888 5887 5886
5906 5907 5909 5911 5912 5912 5912 5913 5914 5915 5917 5918 5919 5918 5917 5916 5914 5912 5910 5909 5907 5906 5905 5904 5903 5902 5901 5900 5899 5898 5898 5897 5896 5895 5894 5893 5892 5891 5890 5889 5888 5887 5885 5884 5883 5883 5882 5882 5881
5905 5905 5906 5909 5910 5910 5910 5910 5911 5912 5914 5915 5915 5915 5915 5913 5911 5909 5907 5905 5903 5901 5900 5898 5897 5896 5895 5894 5893 5892 5892 5891 5890 5888 5888 5886 5885 5884 5883 5882 5881 5879 5878 5877 5876 5876 5875 5875 5874
5902 5903 5904 5906 5908 5908 5908 5908 5908 5909 5910 5911 5911 5911 5910 5909 5906 5905 5903 5901 5898 5896 5893 5891 5890 5888 5887 5886 5885 5884 5884 5883 5882 5881 5879 5878 5877 5875 5874 5874 5872 5871 5870 5868 5868 5867 5867 5866 5866
5898 5900 5902 5903 5903 5903 5904 5904 5905 5907 5907 5907 5906 5906 5904 5903 5901 5899 5897 5895 5893 5890 5887 5885 5883 5881 5879 5878 5877 5876 5875 5875 5874 5873 5871 5869 5867 5866 5864 5863 5862 5861 5860 5859 5858 5858 5857 5857 5857
5893 5895 5897 5897 5896 5897 5899 5901 5902 5902 5902 5901 5900 5899 5898 5896 5895 5893 5891 5889 5886 5884 5881 5879 5876 5874 5872 5870 5869 5868 5867 5866 5865 5864 5862 5860 5858 5856 5854 5853 5853 5852 5851 5850 5849 5849 5849 5849 5848
5887 5889 5890 5890 5891 5893 5896 5897 5898 5896 5895 5894 5893 5892 5891 5890 5889 5886 5884 5882 5880 5877 5875 5873 5870 5867 5865 5863 5861 5860 5858 5857 5856 5855 5854 5852 5850 5848 5847 5846 5845 5844 5843 5843 5842 5842 5842 5841 5841
5881 5882 5883 5884 5885 5887 5889 5891 5891 5890 5889 5888 5886 5885 5884 5884 5882 5879 5877 5875 5873 5870 5867 5865 5863 5861 5859 5856 5854 5853 5851 5850 5848 5847 5845 5843 5842 5840 5839 5838 5838 5836 5835 5835 5834 5834 5833 5833 5832
5875 5876 5876 5877 5878 5880 5881 5882 5883 5883 5882 5881 5880 5879 5878 5877 5876 5873 5871 5868 5865 5862 5860 5857 5855 5854 5852 5850 5848 5846 5844 5843 5841 5839 5837 5835 5833 5832 5830 5829 5828 5827 5826 5826 5825 5824 5823 5823 5823
5869 5870 5871 5871 5872 5872 5873 5873 5874 5875 5875 5874 5874 5873 5872 5871 5870 5868 5865 5861 5858 5856 5853 5851 5849 5846 5844 5843 5841 5839 5838 5836 5833 5831 5829 5826 5824 5822 5820 5819 5817 5816 5816 5816 5815 5814 5813 5813 5813
5864 5865 5866 5866 5866 5866 5866 5867 5867 5867 5868 5868 5867 5867 5866 5865 5863 5861 5858 5855 5852 5850 5847 5845 5842 5840 5837 5835 5834 5832 5830 5828 5826 5824 5821 5818 5816 5813 5811 5809 5808 5806 5806 5805 5804 5803 5803 5803 5802
5861 5862 5862 5862 5862 5862 5862 5862 5861 5861 5861 5861 5861 5860 5860 5859 5857 5855 5853 5850 5847 5844 5841 5839 5836 5833 5831 5828 5826 5824 5822 5820 5818 5815 5812 5809 5806 5804 5802 5800 5798 5797 5796 5796 5795 5794 5793 5793 5793
5859 5859 5859 5858 5859 5858 5859 5857 5858 5856 5856 5855 5855 5855 5855 5853 5852 5849 5847 5844 5842 5839 5836 5833 5830 5828 5825 5823 5820 5818 5816 5813 5810 5806 5803 5799 5795 5793 5790 5789 5788 5787 5786 5786 5785 5784 5783 5783 5783
5856 5856 5855 5855 5854 5854 5853 5852 5853 5853 5852 5851 5850 5849 5849 5848 5846 5844 5842 5839 5837 5834 5831 5828 5825 5823 5821 5818 5816 5813 5810 5807 5803 5798 5794 5790 5786 5782 5779 5778 5776 5775 5775 5774 5774 5773 5773 5772 5772
5853 5853 5851 5850 5850 5849 5847 5847 5847 5847 5846 5845 5844 5843 5843 5842 5841 5839 5837 5835 5832 5829 5826 5823 5820 5818 5815 5813 5810 5807 5804 5800 5797 5792 5787 5782 5777 5772 5769 5766 5765 5763 5763 5762 5762 5762 5762 5762 5761
5851 5850 5849 5847 5846 5845 5843 5842 5843 5841 5841 5840 5839 5839 5838 5837 5836 5834 5832 5830 5827 5824 5821 5818 5815 5813 5810 5807 5804 5800 5797 5793 5789 5785 5780 5775 5770 5765 5760 5756 5754 5752 5751 5750 5750 5750 5750 5750 5751
5848 5848 5847 5845 5843 5842 5840 5838 5839 5837 5836 5835 5834 5833 5832 5831 5830 5829 5827 5824 5820 5817 5815 5812 5809 5806 5803 5800 5796 5793 5789 5785 5781 5777 5772 5768 5763 5757 5752 5748 5744 5741 5740 5739 5738 5738 5738 5739 5739
5846 5844 5843 5841 5839 5838 5836 5835 5834 5832 5831 5830 5829 5827 5826 5825 5823 5821 5818 5815 5812 5810 5807 5804 5801 5798 5794 5791 5787 5784 5780 5777 5773 5769 5764 5760 5755 5749 5744 5739 5735 5732 5730 5728 5727 5726 5726 5727 5727
5843 5841 5839 5837 5834 5833 5832 5831 5829 5828 5826 5825 5823 5821 5819 5817 5814 5812 5809 5806 5803 5800 5796 5793 5791 5788 5785 5781 5778 5775 5772 5768 5765 5761 5757 5752 5747 5742 5736 5731 5727 5723 5720 5718 5717 5716 5715 5715 5716
5840 5838 5836 5833 5831 5828 5826 5829 5825 5823 5821 5819 5816 5813 5810 5807 5804 5801 5798 5795 5792 5789 5786 5783 5780 5778 5775 5772 5769 5766 5762 5759 5756 5752 5748 5744 5740 5735 5729 5724 5720 5716 5713 5710 5708 5706 5705 5704 5705
5836 5834 5832 5829 5827 5824 5821 5823 5819 5816 5813 5811 5808 5804 5801 5798 5794 5791 5788 5784 5781 5778 5775 5772 5769 5766 5763 5761 5759 5756 5753 5750 5747 5744 5740 5736 5732 5728 5723 5718 5714 5710 5706 5703 5700 5698 5696 5695 5695
Wind_Speed
4 2 3 3 3 4 6 7 7 9 11 9 8 8 8 7 5 5 5 5 6 7 7 6 6 7 8 9 9 8 9 10 11 12 13 13 13 13 13 14 14 15 15 16 17 17 15 14 14
6 3 1 0 2 4 5 6 7 8 8 7 6 7 7 8 7 6 5 5 5 6 7 6 5 6 7 7 8 8 9 9 9 9 9 9 9 10 11 12 12 12 13 13 14 14 14 12 12
8 7 4 3 1 3 5 6 7 6 6 6 6 6 7 7 8 7 6 6 5 5 5 4 5 5 6 6 6 7 7 7 7 6 6 6 6 7 8 9 10 10 10 10 11 11 11 11 10
9 8 7 6 4 3 5 6 6 5 4 4 5 7 8 8 9 9 8 8 7 6 5 5 5 5 5 5 5 5 5 5 4 4 4 4 4 5 6 7 8 9 9 9 9 9 9 8 8
11 10 9 7 6 5 5 6 5 4 4 5 5 7 8 8 9 9 9 9 9 8 8 8 7 7 6 5 4 4 4 4 4 4 4 4 4 5 6 7 9 9 10 10 10 9 9 8 7
15 14 12 10 9 7 5 3 2 3 6 6 5 6 6 6 7 7 8 8 9 9 9 9 9 8 6 5 3 3 3 3 4 4 4 4 5 6 8 10 12 13 14 13 11 10 9 9 8
19 18 16 15 14 12 10 6 2 3 6 6 5 4 4 5 5 6 7 7 8 9 9 9 9 9 7 6 5 4 3 4 5 5 6 7 8 10 12 14 15 16 16 16 15 12 10 9 9
22 21 20 19 17 15 13 10 5 2 6 7 6 4 4 4 5 7 9 9 9 9 9 9 9 10 10 9 8 7 7 8 9 10 11 12 13 15 17 18 18 18 18 18 19 18 15 13 11
25 23 21 19 17 16 13 11 8 5 5 4 3 3 5 8 10 12 13 14 14 13 11 11 12 12 13 13 14 14 14 15 16 16 17 17 18 19 20 21 22 22 21 22 22 22 20 17 16
27 26 24 21 18 16 15 14 12 7 6 4 2 3 7 11 15 18 19 19 20 20 19 17 18 18 18 19 20 21 21 22 23 23 23 23 23 23 24 25 26 26 25 25 25 25 24 23 21
29 29 27 24 20 18 17 16 14 10 9 9 9 10 12 16 19 22 24 25 25 25 25 24 24 24 24 25 26 27 27 28 28 29 29 29 29 29 29 29 30 30 30 30 29 28 28 27 27
25 31 30 27 24 21 20 19 16 15 14 14 15 17 19 22 25 27 29 29 29 29 29 29 29 29 29 30 31 31 31 32 33 34 34 34 35 34 34 34 34 34 35 35 34 33 32 31 31
22 27 28 28 27 26 24 23 22 21 20 20 21 23 25 28 31 32 31 30 30 31 31 32 33 34 34 35 35 35 35 35 36 36 37 38 39 39 39 38 38 38 39 39 38 36 35 35 35
25 24 25 26 28 29 29 28 27 25 25 26 27 29 31 33 34 34 33 32 31 30 29 30 33 35 37 38 38 39 39 38 38 39 40 41 42 43 44 43 41 41 42 43 42 40 38 38 38
29 27 27 28 30 30 31 30 29 28 30 31 33 34 35 36 35 34 31 30 29 28 27 27 28 31 34 35 36 37 38 39 38 39 40 40 41 41 41 40 39 38 39 40 40 40 40 40 39
33 32 33 34 34 33 33 32 32 33 34 35 37 37 37 36 33 31 30 28 28 28 28 27 27 28 29 31 32 33 34 36 37 37 37 38 38 38 37 36 36 38 39 38 37 37 38 39 39
36 36 37 38 38 37 36 35 36 36 37 38 39 38 36 32 28 28 29 29 29 29 29 28 25 24 25 26 28 29 31 33 35 36 37 39 40 40 40 39 39 39 40 40 40 41 42 42 42
33 36 38 39 40 40 39 38 38 37 37 37 36 34 31 27 26 29 30 31 30 30 29 28 27 26 25 25 25 27 29 31 34 36 37 38 39 40 41 41 42 42 42 42 43 44 44 44 43
29 31 34 36 37 37 38 37 36 34 33 32 31 30 28 27 29 32 33 32 31 30 29 28 28 28 28 28 28 28 29 30 32 33 34 35 36 37 38 38 38 39 39 40 41 42 42 42 42
26 28 30 32 32 32 33 33 33 33 31 30 30 30 30 31 33 35 35 32 31 30 29 29 30 30 29 29 30 31 32 33 34 35 36 36 36 37 37 37 36 36 35 35 36 37 38 38 38
23 26 28 29 29 29 31 31 31 31 31 31 31 32 33 35 36 35 33 30 29 30 31 32 31 30 30 30 30 30 31 32 34 36 37 38 39 39 39 39 39 38 36 35 35 35 35 36 36
19 21 23 25 26 28 30 32 32 33 34 35 36 36 37 37 35 32 29 28 29 31 31 31 29 28 28 28 27 26 27 29 31 33 35 36 38 40 41 41 41 41 40 38 37 36 36 37 37
18 19 20 20 22 25 29 33 33 33 36 39 39 38 36 34 31 28 26 27 29 30 29 28 26 25 23 22 22 22 24 26 29 32 34 35 36 38 39 40 41 41 41 40 39 38 37 37 37
12 14 15 16 18 20 23 25 25 26 28 31 31 30 28 26 25 25 26 27 28 27 26 25 24 22 20 20 21 23 25 26 29 31 33 35 35 36 37 39 40 41 42 41 40 39 38 37 37
11 13 15 16 17 17 19 20 19 19 20 22 23 23 23 24 24 25 25 25 26 26 25 24 22 21 22 23 25 27 28 30 31 32 34 35 36 36 36 36 38 40 41 41 42 41 40 39 39
12 14 16 17 17 16 19 19 18 19 19 21 22 23 23 24 23 22 22 23 25 25 24 23 23 24 26 28 30 31 32 34 35 35 36 37 37 37 36 35 36 37 38 40 41 41 42 41 41
12 13 15 18 18 18 18 19 19 20 20 21 23 23 22 20 19 19 21 23 25 26 26 26 27 29 31 33 34 35 36 37 37 37 37 37 38 39 38 36 34 34 35 36 37 38 40 41 41
11 12 14 17 20 19 17 18 20 20 21 22 23 23 23 22 22 23 25 27 28 30 31 32 33 34 35 36 36 38 39 39 39 39 38 38 38 39 39 37 34 32 32 33 33 34 36 37 38
15 16 17 19 22 24 22 19 20 22 24 26 27 28 28 29 29 30 32 33 35 36 37 38 38 37 37 37 37 39 40 41 41 40 39 38 38 39 39 37 33 31 30 30 29 30 31 32 33
19 21 23 25 25 26 27 26 25 26 28 30 32 33 34 35 36 37 39 40 41 42 43 43 44 43 42 41 40 40 42 42 41 40 39 38 38 38 38 37 33 31 29 27 26 26 26 27 27
Wind_Direction
142 87 37 34 51 80 83 81 86 89 88 92 90 80 74 70 58 51 53 57 65 68 68 54 35 35 43 52 53 44 36 36 40 44 47 46 43 38 34 32 30 29 30 33 35 37 35 34 35
195 194 227 323 58 83 90 86 78 69 62 63 59 51 53 53 45 40 43 47 57 62 64 53 35 33 36 42 43 39 34 30 31 38 43 45 41 35 28 25 24 22 21 23 27 29 31 32 34
212 217 227 234 221 140 121 104 92 74 51 30 15 7 16 23 18 7 8 9 20 33 43 37 25 24 24 26 26 27 27 28 29 33 39 40 34 25 18 15 14 13 10 8 10 13 17 21 25
226 225 220 221 221 203 162 134 127 115 84 36 359 345 352 360 358 350 344 344 350 354 351 346 346 349 353 360 5 4 5 10 15 16 14 10 2 357 355 353 355 357 355 351 350 354 357 1 7
222 218 212 212 220 217 193 161 142 134 101 45 6 353 353 348 344 337 334 337 340 338 335 333 334 335 338 345 349 344 343 349 353 350 343 336 328 323 323 325 328 332 335 335 334 337 337 336 339
219 218 212 211 218 223 227 207 141 113 82 45 13 5 7 2 346 335 333 336 334 329 326 328 335 338 336 333 327 321 321 328 335 336 331 325 319 315 312 311 312 314 315 316 317 319 323 324 323
219 223 220 221 227 242 254 266 291 104 91 65 32 21 41 39 13 1 355 351 345 339 335 333 332 329 321 312 305 298 291 297 307 310 308 303 304 307 307 305 304 305 306 304 302 301 305 309 311
223 231 232 234 242 253 261 269 271 162 112 88 61 34 28 17 353 345 337 333 333 333 332 329 325 322 316 309 302 296 292 292 296 298 297 292 294 297 300 299 298 299 300 300 299 296 293 290 289
224 233 238 243 250 258 269 281 284 237 170 132 94 22 349 330 323 318 315 312 309 305 304 302 300 300 300 299 296 293 292 291 292 293 293 290 289 291 293 293 294 295 295 296 295 294 293 288 283
220 229 238 244 252 259 271 289 295 266 231 224 234 295 311 314 313 309 305 303 300 296 289 284 283 284 286 287 288 288 288 288 289 289 290 290 289 290 291 290 289 290 290 290 290 290 289 286 281
219 225 234 241 247 256 270 284 289 279 269 275 285 293 299 303 303 300 298 297 296 294 291 286 283 282 282 282 282 283 285 286 287 287 288 288 287 287 288 288 286 285 284 283 282 282 282 281 280
224 227 233 239 244 250 262 274 280 281 281 285 291 296 298 297 295 294 295 295 294 292 290 289 287 285 283 281 279 279 279 281 282 283 283 283 282 282 281 281 281 280 279 278 276 275 274 275 275
234 232 237 242 246 248 254 263 271 276 281 284 287 289 290 290 291 293 294 293 292 290 287 285 284 283 282 280 278 277 276 277 278 279 279 279 279 278 277 274 273 273 273 272 270 268 268 268 269
241 239 240 245 249 252 254 258 264 272 277 281 282 283 284 286 288 290 292 292 292 291 289 285 281 279 277 277 277 277 276 277 277 278 278 279 279 279 277 273 271 271 271 269 266 265 264 264 265
241 243 244 243 244 248 254 259 267 273 276 279 280 280 281 283 286 290 293 295 295 293 291 289 287 284 281 280 279 279 280 281 281 280 280 281 281 282 282 280 277 276 278 277 273 271 272 271 271
238 242 245 248 249 252 258 264 268 271 273 274 275 276 278 281 287 291 294 297 297 295 294 293 291 288 285 282 281 281 281 282 283 282 280 280 281 282 282 281 280 278 277 279 277 275 275 275 275
240 242 246 251 255 257 260 262 264 267 269 269 270 273 276 280 286 292 297 300 299 297 295 296 295 292 290 289 287 285 284 283 282 282 282 282 281 281 280 281 281 279 278 277 276 275 274 274 275
240 244 248 252 257 260 262 264 264 264 264 266 268 270 272 277 285 294 300 302 300 300 298 299 300 300 300 301 302 299 294 290 287 286 285 284 283 282 281 280 279 278 277 276 276 275 274 274 273
242 246 249 253 257 260 262 263 264 262 260 261 262 263 269 280 288 296 301 302 301 301 302 305 307 305 302 302 304 303 301 298 294 291 288 286 284 282 282 281 281 279 278 276 275 274 273 272 272
245 246 248 250 251 254 257 258 259 258 258 259 262 269 278 286 292 298 300 299 298 300 304 308 309 309 306 304 303 303 302 300 298 295 292 289 286 283 282 281 280 280 279 278 276 275 273 272 271
250 250 250 250 249 250 253 256 258 262 264 267 271 277 283 289 293 294 293 292 294 299 304 308 310 312 311 310 309 308 307 306 305 302 298 293 289 285 282 279 278 277 276 276 276 275 273 272 271
259 259 259 258 256 253 255 256 257 261 265 269 272 277 282 286 287 285 284 286 293 299 303 307 310 312 313 314 315 316 317 317 316 313 307 300 293 287 283 280 277 275 275 274 274 274 274 272 272
271 273 272 271 268 264 261 262 263 261 263 268 271 275 278 278 278 277 281 288 293 297 301 303 304 305 308 312 316 320 323 325 325 324 319 312 303 295 287 281 277 275 274 274 274 275 274 273 273
284 286 287 286 283 278 274 272 272 268 266 268 271 272 272 271 273 278 283 287 290 293 295 294 294 296 301 306 311 315 317 320 324 326 326 322 315 305 295 286 280 275 273 273 273 274 274 273 273
291 296 295 294 292 288 284 282 283 278 275 273 272 271 270 270 274 277 280 282 283 284 285 285 287 292 297 301 305 309 312 316 319 322 325 326 322 314 304 294 286 280 275 273 271 271 271 271 271
292 295 295 293 291 288 285 286 287 282 278 276 275 274 273 273 274 275 276 274 273 275 278 283 289 295 300 303 307 310 312 315 318 320 323 326 326 321 313 303 293 284 279 275 272 270 269 269 268
300 296 293 291 290 289 285 285 283 281 279 278 278 278 277 278 279 277 272 270 272 277 284 292 298 300 303 306 309 310 311 314 316 317 320 323 326 325 320 312 303 293 285 278 274 270 268 267 267
311 305 300 296 297 297 292 288 285 284 284 282 283 286 287 286 285 284 284 285 289 294 299 302 303 303 304 306 307 308 309 311 312 314 315 318 322 325 323 317 310 303 295 287 279 273 269 267 266
316 311 307 303 303 304 303 299 296 294 291 288 286 287 287 287 288 290 292 293 296 299 301 302 302 302 303 304 305 306 307 308 309 310 313 315 318 322 323 320 315 310 304 296 289 280 273 269 267
318 316 313 310 309 307 305 305 299 294 290 287 286 286 286 288 290 291 293 294 295 297 299 301 301 301 301 301 303 305 306 306 306 308 309 311 314 317 319 319 316 313 309 303 297 289 278 271 267